This is the latest recevied weather packets stored in our database for station/object W5ALL-WX. If no packets are shown the sender has not sent any weather packets the latest 1 day(s).
| Time | Temp. | Humidity | Pressure | Rain* | Wind** | Luminosity | Snow |
|---|---|---|---|---|---|---|---|
| 1778026331 | 22.22° C | 26% | 1009.6 hPa | 0 mm | 1.79 m/s, 260° | - | - |
| 1778026031 | 22.22° C | 26% | 1009.7 hPa | 0 mm | 2.68 m/s, 224° | - | - |
| 1778025731 | 22.22° C | 26% | 1009.6 hPa | 0 mm | 3.13 m/s, 239° | - | - |
| 1778025431 | 22.22° C | 26% | 1009.6 hPa | 0 mm | 3.58 m/s, 194° | - | - |
| 1778025131 | 21.67° C | 29% | 1009.6 hPa | 0 mm | 1.34 m/s, 188° | - | - |
| 1778024831 | 21.67° C | 31% | 1009.7 hPa | 0 mm | 5.81 m/s, 211° | - | - |
| 1778024531 | 21.67° C | 32% | 1009.7 hPa | 0 mm | 4.02 m/s, 200° | - | - |
| 1778024231 | 21.67° C | 32% | 1009.8 hPa | 0 mm | 4.47 m/s, 170° | - | - |
| 1778023931 | 21.67° C | 33% | 1009.8 hPa | 0 mm | 4.47 m/s, 193° | - | - |
| 1778023631 | 21.67° C | 32% | 1009.7 hPa | 0 mm | 4.47 m/s, 204° | - | - |
| 1778023331 | 21.67° C | 34% | 1009.7 hPa | 0 mm | 4.47 m/s, 226° | - | - |
| 1778023031 | 21.11° C | 34% | 1009.7 hPa | 0 mm | 4.92 m/s, 198° | - | - |
| 1778022731 | 21.11° C | 34% | 1009.6 hPa | 0 mm | 4.47 m/s, 156° | - | - |
| 1778022431 | 21.11° C | 34% | 1009.7 hPa | 0 mm | 4.92 m/s, 169° | - | - |
| 1778022131 | 21.11° C | 34% | 1009.9 hPa | 0 mm | 5.81 m/s, 172° | - | - |
| 1778021831 | 21.11° C | 34% | 1009.9 hPa | 0 mm | 6.26 m/s, 172° | - | - |
| 1778021531 | 21.67° C | 33% | 1010 hPa | 0 mm | 4.02 m/s, 207° | - | - |
| 1778021231 | 21.67° C | 34% | 1010.1 hPa | 0 mm | 5.36 m/s, 219° | - | - |
| 1778020931 | 21.67° C | 34% | 1010.1 hPa | 0 mm | 5.36 m/s, 156° | - | - |
| 1778020631 | 21.67° C | 34% | 1010 hPa | 0 mm | 4.47 m/s, 229° | - | - |
| 1778020331 | 21.11° C | 35% | 1010.3 hPa | 0 mm | 4.02 m/s, 201° | - | - |
| 1778020031 | 21.11° C | 35% | 1010.4 hPa | 0 mm | 2.68 m/s, 197° | - | - |
| 1778019731 | 21.11° C | 35% | 1010.4 hPa | 0 mm | 4.92 m/s, 219° | - | - |
| 1778019431 | 21.11° C | 35% | 1010.5 hPa | 0 mm | 4.02 m/s, 217° | - | - |
| 1778019131 | 21.11° C | 35% | 1010.6 hPa | 0 mm | 5.36 m/s, 204° | - | - |
* Rain latest hour (hover to see other rain measurements)
** Current wind speed in m/s (hover to see current wind gust speed)